Location: Lake Zurich
(42.1970°N, 88.0930°W)
Time: 18:38:52
(UTC-06:00)

Daily predictions for brighter satellites

Satellite Brightness Start Highest point End
(mag) Time Altitude Azimuth Time Altitude Azimuth Time Altitude Azimuth
Cosmos 44 3.5 17:54:49 10° NNW 17:59:05 41° NE 18:03:10 10° ESE
DELTA 2 R/B (1) 3.8 17:54:23 10° WSW 17:59:58 66° S 18:05:31 10° E
YAOGAN 1 4.2 17:58:17 10° S 18:02:22 41° W 18:06:29 10° NNW
Cosmos 1908 Rocket 4.1 17:59:01 10° SSW 18:03:20 65° W 18:07:43 10° N
NOSS 2-2 (C) 3.5 18:01:42 10° SSW 18:05:43 73° ESE 18:10:19 10° NE
Cosmos 1782 Rocket 3.6 18:03:55 10° S 18:08:19 83° E 18:12:48 10° N
Cosmos 1812 3.1 18:07:04 10° N 18:10:44 40° ENE 18:14:24 10° SSE
Cosmos 1992 Rocket 4.0 18:07:35 10° NNW 18:12:51 77° ENE 18:18:04 10° SSE
Cosmos 407 Rocket 4.1 18:10:40 10° SSE 18:15:24 36° ESE 18:20:13 10° NE
COSMO-SKYMED 1 3.1 18:15:27 10° N 18:19:46 65° WNW 18:24:03 10° SSW
Okean 2 Rocket 3.0 18:16:36 10° S 18:21:04 84° E 18:25:32 10° N
ERBS 3.3 18:17:56 10° NW 18:21:19 50° SW 18:24:40 10° SSE
ATLAS CENTAUR R/B 4.0 18:23:14 10° W 18:26:22 18° NW 18:29:24 10° N
Cosmos 2360 Rocket 3.1 18:24:02 10° N 18:28:52 28° NE 18:32:44 14° ESE
FREGAT/IRIS 2.6 18:26:38 10° SSE 18:29:41 64° ENE 18:32:45 10° N
Cosmos 1980 Rocket 3.4 18:24:23 10° NW 18:29:47 46° WSW 18:35:10 10° S
Cosmos 1745 Rocket 4.2 18:28:46 10° S 18:35:07 81° W 18:41:27 10° N
METEOR-M 4.2 18:30:05 10° SSE 18:35:26 85° WSW 18:40:49 10° NNW
Meteor 1-18 Rocket 4.2 18:32:39 10° N 18:38:14 88° W 18:43:50 10° S
Cosmos 1190 Rocket 3.9 18:33:44 10° S 18:38:53 70° ESE 18:44:04 10° NNE
Cosmos 2151 Rocket 3.6 18:34:50 10° S 18:39:15 61° E 18:43:43 10° NNE
NOAA 12 4.3 18:34:07 10° S 18:39:25 77° WSW 18:44:47 10° NNW
GEOS 3 Rocket 3.6 18:37:19 10° NE 18:42:35 80° SE 18:47:51 10° SSW
ALOS 2.2 18:38:10 10° SSE 18:42:45 61° ENE 18:47:22 10° N
SJ-6B 2.9 18:39:40 10° SSE 18:43:43 85° WSW 18:47:43 10° NNW
TSX-5 4.4 18:42:22 10° SSE 18:44:47 25° ESE 18:44:47 25° ESE
Cosmos 1140 Rocket 4.2 18:41:57 10° SSE 18:46:17 28° E 18:49:25 16° NE
Cosmos 1238 Rocket 3.2 18:44:30 10° NNE 18:46:37 26° NE 18:46:37 26° NE
Cosmos 2333 Rocket 4.2 18:48:11 10° NNE 18:49:49 11° NE 18:50:09 11° NE
Spot 2 Rocket 3.5 18:45:38 10° SSE 18:50:33 57° ENE 18:55:32 10° N
Okean 1 Rocket 3.8 18:47:50 10° SSE 18:51:45 30° E 18:55:40 10° NNE
FengYun 1-2 T 4.1 18:46:36 10° SSE 18:52:03 73° ENE 18:57:33 10° N
Cosmos 2292 Rocket 4.0 18:49:12 10° S 18:53:50 75° E 19:00:11 10° N
Cosmos 1461 2.7 18:49:58 10° NNW 18:53:58 70° ENE 18:56:30 22° SE
Meteor 1-19 Rocket 4.4 18:50:34 10° N 18:56:02 49° ENE 19:01:33 10° SSE
SL-16 R/B 2.4 18:54:32 10° NNW 19:00:12 73° WSW 19:05:50 10° SSE
Okean 1-7 Rocket 4.4 18:57:58 10° NNE 19:01:50 31° ENE 19:01:50 31° ENE
Helios 1A 3.4 19:02:05 36° E 19:02:52 40° ENE 19:06:46 10° N
Cosmos 1633 2.5 18:59:49 10° S 19:03:25 58° E 19:07:04 10° NNE
HJ-1C 3.6 19:01:34 10° S 19:04:56 70° WSW 19:08:19 10° NNW
Envisat 4.1 19:07:28 26° NE 19:07:28 26° NE 19:11:02 10° N
Cosmos 1954 Rocket 3.9 19:02:35 10° S 19:07:40 60° ESE 19:12:48 10° NNE
Meteor 1-13 Rocket 4.1 19:02:32 10° N 19:08:04 70° E 19:13:39 10° SSE
CENTAUR R/B 4.3 19:00:47 10° NW 19:08:09 42° WSW 19:15:51 10° S
Okean 1 4.1 19:09:04 10° NNW 19:13:02 53° W 19:16:58 10° S
Cosmos 1340 2.6 19:11:45 10° N 19:15:33 87° W 19:18:11 19° S
Cosmos 2322 Rocket 3.1 19:14:08 10° NW 19:19:31 48° WSW 19:24:53 10° S
Tiangong 2 1.9 19:20:24 10° W 19:22:55 47° WSW 19:22:55 47° WSW
CZ-2D R/B 3.1 19:22:38 55° SSE 19:23:26 86° ENE 19:27:17 10° NNW
Meteor 1-23 Rocket 4.4 19:19:24 10° N 19:25:04 50° ENE 19:26:15 44° ESE
Cosmos 1025 Rocket 4.5 19:24:36 10° N 19:26:40 25° NNE 19:26:40 25° NNE
Cosmos 2322 3.6 19:23:06 10° NNW 19:28:51 70° ENE 19:30:39 44° SE
Resurs 01 Rocket 2.3 19:25:23 10° S 19:29:42 54° W 19:34:02 10° NNW
Helios 1B rocket 3.8 19:33:19 28° S 19:33:19 28° S 19:35:19 10° S
Cosmos 1818 3.7 19:26:31 10° SW 19:31:57 75° NW 19:35:28 23° NNE
H-2A R/B 3.7 19:33:51 15° S 19:36:44 45° W 19:40:20 10° NNW
Cosmos 2181 Rocket 4.3 19:31:26 10° NNW 19:37:36 68° W 19:43:50 10° S
Meteor 2-4 Rocket 3.5 19:32:38 10° N 19:38:16 79° E 19:40:14 42° SSE
COSMOS 2428 3.1 19:34:04 10° NNW 19:39:00 44° NE 19:39:00 44° NE
Cosmos 2237 4.2 19:34:44 10° NNW 19:40:25 58° ENE 19:40:31 58° ENE
Cosmos 2327 Rocket 4.4 19:35:45 10° S 19:41:50 64° E 19:48:04 10° NNE
Meteor 1-11 Rocket 3.9 19:36:41 10° SSW 19:42:26 76° W 19:48:21 10° N
BREEZE-M DEB (TANK) 3.7 19:40:23 10° NW 19:43:48 71° NNE 19:44:45 58° E
DELTA 2 R/B (1) 3.7 19:40:42 10° W 19:46:13 59° SSW 19:46:45 56° SSE
Cosmos 2237 Rocket 4.0 19:50:00 10° N 19:52:07 18° NNE 19:52:07 18° NNE
SL-08 ROCKET BODY 4.4 19:49:12 10° S 19:55:21 85° W 20:01:36 10° N
Cosmos 1570 Rocket 4.1 19:50:19 10° NNW 19:54:50 65° N 19:54:50 65° N
Cosmos 2184 Rocket 3.9 19:52:53 10° S 19:59:14 89° E 20:05:33 10° N
Cosmos 2074 Rocket 3.9 19:54:32 10° S 20:00:47 86° W 20:07:06 10° N
BREEZE-M DEB (TANK) 3.7 20:05:03 10° WNW 20:06:55 41° W 20:06:55 41° W
Cosmos 2360 Rocket 3.1 20:07:40 10° NW 20:13:04 46° WSW 20:14:35 37° SSW
Cosmos 2219 Rocket 3.5 20:12:16 10° NNW 20:15:05 29° N 20:15:05 29° N
Cosmos 2285 Rocket 4.3 20:16:47 10° NNW 20:22:00 60° N 20:22:00 60° N
Cosmos 2333 Rocket 3.8 20:29:43 10° NNW 20:32:10 26° N 20:32:10 26° N
USA 229 DEB 4.4 20:52:43 10° NW 20:57:51 51° NW 20:57:51 51° NW
USA 229 4.4 20:52:49 10° NW 20:57:56 50° NW 20:57:56 50° NW
